Flag for U.S.A. Weather past 2 weeks in Norwalk, California, U.S.A.

Now
83 °F

Sunny.


Feels Like: 84 °F
Forecast: 65 / 85 °F
Wind: 9 mph from Southwest

Location: Fullerton Municipal Airport

Current Time: Jul 28, 2015 at 3:42:56 PM

Latest Report: Jul 28, 2015 at 2:53 PM


Visibility: 10 mi

Pressure: 29.84 "Hg

Humidity: 50%

Dew point: 62 °F

Location of NorwalkLocation

Historic Weather in Norwalk — Graph

°F

Norwalk temperature yesterday

Maximum temperature yesterday: 81 °F (at 11:53 AM)
Minimum temperature yesterday: 68 °F (at 1:53 AM)
Average temperature yesterday: 74 °F

Past Weeks' High & Low Weather Summary

 TemperatureHumidityPressure
High90 °F (Jul 19, 10:53 AM)91% (Jul 18, 8:53 PM)30.07 "Hg (Jul 18, 8:53 PM)
Low66 °F (Jul 17, 4:53 AM)30% (Jul 18, 11:53 AM)29.77 "Hg (Jul 17, 4:53 PM)
Average75 °F67%29.91 "Hg
* Reported Jul 13 12:53 PM — Jul 28 12:53 PM, Norwalk, Weather by CustomWeather, © 2015

Note: Actual official high and low records may vary slightly from our data, if they occured in-between our weather recording intervals... More about our weather records

Advertising

Norwalk weather history for previous 24 hours

 ConditionsComfort  
Time TempWeatherWind HumidityBarometerVisibility
12:53 PM
Tue, Jul 28
82 °FSunny.7 mph51%29.87 "Hg10 mi
11:53 AM83 °FSunny.6 mph50%29.88 "Hg10 mi
10:53 AM80 °FSunny.No wind52%29.88 "Hg10 mi
9:53 AM75 °FSunny.3 mph62%29.89 "Hg10 mi
8:53 AM73 °FScattered clouds.3 mph66%29.90 "Hg10 mi
8:04 AM71 °FScattered clouds.No wind73%29.91 "Hg10 mi
7:53 AM70 °FPartly sunny.No wind73%29.90 "Hg10 mi
6:53 AM69 °FOvercast.No wind79%29.88 "Hg10 mi
5:53 AM69 °FOvercast.3 mph79%29.88 "Hg10 mi
4:53 AM69 °FOvercast.3 mph81%29.87 "Hg10 mi
3:53 AM69 °FOvercast.No wind81%29.86 "Hg10 mi
2:53 AM69 °FOvercast.No wind81%29.86 "Hg10 mi
1:53 AM69 °FPassing clouds.3 mph84%29.87 "Hg10 mi
12:53 AM70 °FPassing clouds.3 mph81%29.88 "Hg10 mi
11:53 PM
Mon, Jul 27
71 °FOvercast.No wind76%29.88 "Hg10 mi
10:53 PM72 °FClear.3 mph73%29.89 "Hg10 mi
9:53 PM73 °FClear.3 mph69%29.89 "Hg10 mi
8:53 PM73 °FSunny.5 mph66%29.87 "Hg10 mi
7:53 PM74 °FSunny.5 mph64%29.86 "Hg10 mi
6:53 PM76 °FSunny.7 mph58%29.85 "Hg10 mi
5:53 PM79 °FSunny.7 mph52%29.84 "Hg10 mi
4:53 PM79 °FSunny.7 mph52%29.85 "Hg10 mi
3:53 PM80 °FSunny.8 mph51%29.86 "Hg10 mi
Weather by CustomWeather, © 2015

See weather overviewHow to use our weather pages